Showing default

HAISHAO 1, 62190

Orbit data source: Space-Track

HAISHAO 1, 62190 is a Chinese payload satellite in LEO that was launched on Wed, 04 Dec 2024 UTC via a KUAIZHOU-1A launch vehicle from the Xichang Space Center, China (XSC). Payload-class satellites include a variety of spacecraft equipped with specific instruments for various scientific and technological missions. These include communications satellites like Starlink; space stations such as the ISS; scientific satellites like the Hubble; Earth observation satellites from companies like Planet Labs, Umbra, and HawkEye 360; GPS; miniature CubeSats for education and research; and military/defense satellites.

Loading next visibility...
Identifier
62190, 2024-228A
Orbit
LEO
Last TLE update
10 hours ago
Origin
Manufacturer
ZHWK/IMICAS
Mission
Operational Commercial Radar Imaging
Bus & Motor
ZK1, Unknown motor
Mass
400 kg wet, 400 kg dry
Launch date (UTC)
2024-12-04 (7 months ago)
Launch vehicle
KUAIZHOU-1A
Launch site
Xichang Space Center, China (XSC)
Object type
Payload
Rocket body
Debris
Shape & HBR
Box + 3 Pan, 6 m
Radar Cross Section
3.533 m², Large (>1 m²)

Expand to show TLE details & history

TLE from 10 hours ago
0 HAISHAO 1
1 62190U 24228A   25182.68875424  .00026357  00000-0  26175-3 0  9995
2 62190  42.9909 301.2323 0005132 329.7570  30.2998 15.65217472 32658
Epoch: 2025-07-01T16:31Z
TLE epoch observation values (Epoch: 2025-07-01T16:31:48.366Z)
Latitude
-0.00006°
Longitude
133.3001°
Altitude
369.394 km
Speed
7.691 km/s
True Right ascension
20h 04m 55s
True Declination
0° 00' 00"
Sunlit
Object was in full shadow at epoch
Visualization orbit readout
Latitude
-42.43432°
Longitude
53.49789°
Altitude
383.495 km
Speed
7.681 km/s
Apparent Right ascension
19h 03m 09s
Apparent Declination
-88° 24' 22"
Sunlit
Object is in full shadow
Visualization observer readout
Local Sidereal Time
14:35:36
Azimuth
178.106° S
Elevation
-39.275°
Doppler factor
1
Orbital elements
Apogee altitude
378.057 km
Perigee altitude
371.126 km
Semi-major axis
6,752.729 km
Eccentricity
0.00051
Inclination
42.9909°
RAAN
301.2323°
Arg. of periapsis
329.757°
True anomaly
Unknown
Mean anomaly
30.2998°
Eccentric anomaly
Unknown
Mean motion
3.91133 °/min
Orbital period
92.04 mins
BSTAR
0.00026175
Loading maneuver chart data...
Loading SW <> Apogee altitude chart data...
Loading historical data...
Loading historical data...
Loading historical data...
Loading historical data...
Loading historical data...
Loading historical data...
Loading historical data...
Other satellites on launch #228 in the year 2024 (2024-12-04 UTC)

HAISHAO 1 Visibility forecast

Observer location: undefined°, undefined°

Span
Click to sort rows by Start time (UTC) header in descending order
Start Az.
Max El. time (UTC)
Max El. Az.
Max El.
End time (UTC)
End Az.
4 mins2025-07-02 11:07:27.352Z202.498° SSW2025-07-02 11:09:27.352Z141.056° SSE25.93°2025-07-02 11:11:27.352Z92.216° ESE
4 mins2025-07-02 12:44:27.352Z276.022° WNW2025-07-02 12:45:27.352Z331.222° NNW41.891°2025-07-02 12:48:27.352Z69.162° E
4 mins2025-07-02 14:20:27.352Z297.686° NW2025-07-02 14:22:27.352Z18.014° NNE35.197°2025-07-02 14:24:27.352Z74.374° E
4 mins2025-07-02 15:57:27.352Z280.787° WNW2025-07-02 15:58:27.352Z258.182° W41.377°2025-07-02 16:01:27.352Z116.748° SE
|